IGO255 VOBL-VOHS

Flight info

Callsign IGO255
Flight time 0h 42m
Altitude 33000
Route LATID7B LATID Q22 SAKRO SARKA6
Aircraft A20N/M-SDE2E3FGHIRWXY/LB1

Departure

Time 2026-04-21 07:46
Airport Kempegowda International Airport Bengaluru (VOBL)

Arrival

Time 2026-04-21 08:29
Airport Rajiv Gandhi International Airport (VOHS)
Time Latitude Longitude Altitude Speed Heading
2026-04-21 07:26 13.20178 77.71074 3011 ft 0 kts 180°
2026-04-21 07:36 13.20182 77.71074 3011 ft 1 kts 180°
2026-04-21 07:36 13.20190 77.71074 3014 ft 1 kts 180°
2026-04-21 07:36 13.20204 77.71074 3014 ft 1 kts 180°
2026-04-21 07:37 13.20209 77.71074 3013 ft 1 kts 180°
2026-04-21 07:37 13.20213 77.71074 3015 ft 2 kts 180°
2026-04-21 07:37 13.20225 77.71074 3012 ft 2 kts 176°
2026-04-21 07:37 13.20235 77.71072 3011 ft 2 kts 153°
2026-04-21 07:38 13.20243 77.71065 3011 ft 2 kts 97°
2026-04-21 07:38 13.20242 77.71054 3011 ft 2 kts 73°
2026-04-21 07:38 13.20239 77.71043 3011 ft 2 kts 85°
2026-04-21 07:38 13.20239 77.71040 3011 ft 0 kts 90°
2026-04-21 07:40 13.20239 77.71049 3011 ft 2 kts 90°
2026-04-21 07:40 13.20239 77.71053 3011 ft 2 kts 90°
2026-04-21 07:40 13.20239 77.71073 3011 ft 4 kts 90°
2026-04-21 07:41 13.20239 77.71113 3011 ft 7 kts 90°
2026-04-21 07:41 13.20239 77.71171 3011 ft 10 kts 90°
2026-04-21 07:41 13.20256 77.71247 3011 ft 12 kts 37°
2026-04-21 07:41 13.20341 77.71257 3011 ft 14 kts
2026-04-21 07:42 13.20445 77.71259 3011 ft 16 kts 360°
2026-04-21 07:42 13.20519 77.71292 3013 ft 12 kts 72°
2026-04-21 07:42 13.20522 77.71388 3011 ft 15 kts 90°
2026-04-21 07:42 13.20521 77.71517 3011 ft 21 kts 91°
2026-04-21 07:43 13.20520 77.71674 3011 ft 23 kts 91°
2026-04-21 07:43 13.20518 77.71840 3011 ft 24 kts 91°
2026-04-21 07:43 13.20517 77.72007 3011 ft 24 kts 89°
2026-04-21 07:43 13.20515 77.72116 3011 ft 7 kts 92°
2026-04-21 07:44 13.20512 77.72190 3011 ft 16 kts 92°
2026-04-21 07:44 13.20558 77.72279 3011 ft 15 kts
2026-04-21 07:44 13.20651 77.72275 3011 ft 13 kts 356°
2026-04-21 07:44 13.20687 77.72226 3011 ft 10 kts 273°
2026-04-21 07:45 13.20687 77.72211 3011 ft 0 kts 271°
2026-04-21 07:45 13.20687 77.72187 3011 ft 22 kts 271°
2026-04-21 07:45 13.20691 77.71778 3011 ft 91 kts 270°
2026-04-21 07:45 13.20697 77.70933 3011 ft 144 kts 270°
2026-04-21 07:46 13.20706 77.69751 3059 ft 181 kts 271°
2026-04-21 07:46 13.20712 77.68458 3649 ft 182 kts 271°
2026-04-21 07:46 13.20734 77.67147 4198 ft 191 kts 271°
2026-04-21 07:46 13.20766 77.65726 4654 ft 206 kts 272°
2026-04-21 07:47 13.20801 77.64200 5042 ft 223 kts 271°
2026-04-21 07:47 13.20796 77.62527 5395 ft 246 kts 269°
2026-04-21 07:47 13.20760 77.60691 5861 ft 268 kts 269°
2026-04-21 07:47 13.20748 77.58704 6374 ft 286 kts 275°
2026-04-21 07:48 13.21307 77.56740 6850 ft 289 kts 301°
2026-04-21 07:48 13.22636 77.55219 7302 ft 287 kts 327°
2026-04-21 07:48 13.24475 77.54445 7789 ft 286 kts 353°
2026-04-21 07:48 13.26461 77.54497 8279 ft 288 kts
2026-04-21 07:49 13.28424 77.54743 8759 ft 289 kts
2026-04-21 07:49 13.30425 77.54993 9253 ft 290 kts
2026-04-21 07:49 13.32361 77.55303 9735 ft 291 kts 19°
2026-04-21 07:49 13.34299 77.55950 10399 ft 298 kts 21°
2026-04-21 07:50 13.36339 77.56666 10663 ft 321 kts 21°
2026-04-21 07:50 13.38519 77.57428 10955 ft 341 kts 20°
2026-04-21 07:50 13.40794 77.58215 11625 ft 346 kts 20°
2026-04-21 07:50 13.43093 77.59002 12356 ft 350 kts 20°
2026-04-21 07:51 13.45415 77.59795 13069 ft 354 kts 20°
2026-04-21 07:51 13.47774 77.60600 13682 ft 360 kts 20°
2026-04-21 07:51 13.50162 77.61414 13895 ft 361 kts 20°
2026-04-21 07:51 13.52546 77.62227 13962 ft 361 kts 20°
2026-04-21 07:52 13.54927 77.63040 13967 ft 361 kts 20°
2026-04-21 07:52 13.56511 77.63582 13963 ft 361 kts 20°
2026-04-21 07:52 13.58891 77.64396 13964 ft 360 kts 20°
2026-04-21 07:52 13.61282 77.65214 13959 ft 362 kts 20°
2026-04-21 07:53 13.64440 77.66294 13970 ft 364 kts 20°
2026-04-21 07:53 13.66861 77.67124 14468 ft 366 kts 20°
2026-04-21 07:53 13.68491 77.67683 14959 ft 367 kts 20°
2026-04-21 07:53 13.70933 77.68520 15564 ft 372 kts 20°
2026-04-21 07:54 13.73402 77.69366 16143 ft 377 kts 19°
2026-04-21 07:54 13.75902 77.70222 16734 ft 381 kts 19°
2026-04-21 07:54 13.78405 77.71079 17275 ft 386 kts 19°
2026-04-21 07:54 13.80972 77.71959 17815 ft 391 kts 19°
2026-04-21 07:55 13.83562 77.72847 18331 ft 396 kts 19°
2026-04-21 07:55 13.86197 77.73750 18834 ft 399 kts 19°
2026-04-21 07:55 13.88844 77.74658 19335 ft 402 kts 18°
2026-04-21 07:55 13.91519 77.75575 19823 ft 406 kts 18°
2026-04-21 07:56 13.94212 77.76499 20281 ft 410 kts 18°
2026-04-21 07:56 13.96929 77.77432 20761 ft 414 kts 18°
2026-04-21 07:56 13.99675 77.78375 21222 ft 418 kts 18°
2026-04-21 07:56 14.02455 77.79330 21679 ft 422 kts 18°
2026-04-21 07:57 14.05257 77.80292 22142 ft 426 kts 18°
2026-04-21 07:57 14.08047 77.81251 22587 ft 430 kts 18°
2026-04-21 07:57 14.10903 77.82233 23026 ft 434 kts 18°
2026-04-21 07:57 14.13790 77.83225 23483 ft 438 kts 18°
2026-04-21 07:58 14.16685 77.84221 23840 ft 442 kts 18°
2026-04-21 07:58 14.19624 77.85232 24219 ft 445 kts 17°
2026-04-21 07:58 14.22580 77.86249 24571 ft 449 kts 17°
2026-04-21 07:58 14.25514 77.87259 24943 ft 451 kts 17°
2026-04-21 07:59 14.28550 77.88304 25265 ft 456 kts 17°
2026-04-21 07:59 14.31538 77.89333 25627 ft 459 kts 17°
2026-04-21 07:59 14.34579 77.90381 25975 ft 462 kts 17°
2026-04-21 07:59 14.37645 77.91437 26303 ft 466 kts 17°
2026-04-21 08:00 14.40734 77.92501 26634 ft 469 kts 17°
2026-04-21 08:00 14.43842 77.93572 26965 ft 472 kts 17°
2026-04-21 08:00 14.46981 77.94619 27291 ft 474 kts 13°
2026-04-21 08:00 14.50213 77.95330 27602 ft 475 kts
2026-04-21 08:01 14.53455 77.95862 27912 ft 478 kts
2026-04-21 08:01 14.56749 77.96417 28240 ft 481 kts
2026-04-21 08:01 14.60059 77.96978 28536 ft 484 kts
2026-04-21 08:02 14.66753 77.98115 29135 ft 490 kts
2026-04-21 08:02 14.70124 77.98687 29432 ft 492 kts
2026-04-21 08:02 14.73524 77.99264 29733 ft 495 kts
2026-04-21 08:02 14.76928 77.99841 30024 ft 497 kts
2026-04-21 08:03 14.80359 78.00423 30266 ft 500 kts
2026-04-21 08:03 14.83759 78.00999 30506 ft 503 kts
2026-04-21 08:03 14.87227 78.01588 30750 ft 506 kts
2026-04-21 08:03 14.90708 78.02179 31006 ft 509 kts
2026-04-21 08:04 14.94218 78.02775 31308 ft 510 kts
2026-04-21 08:04 14.97729 78.03371 31621 ft 511 kts
2026-04-21 08:04 15.01248 78.03969 31932 ft 512 kts
2026-04-21 08:04 15.04763 78.04567 32250 ft 512 kts
2026-04-21 08:05 15.08280 78.05165 32568 ft 513 kts
2026-04-21 08:05 15.11804 78.05764 32805 ft 514 kts
2026-04-21 08:05 15.15332 78.06365 32857 ft 513 kts
2026-04-21 08:06 15.22287 78.07550 32871 ft 512 kts
2026-04-21 08:06 15.29276 78.08739 32865 ft 512 kts
2026-04-21 08:07 15.36306 78.09937 32861 ft 512 kts
2026-04-21 08:07 15.43338 78.11094 32874 ft 512 kts
2026-04-21 08:08 15.50374 78.12232 32846 ft 510 kts
2026-04-21 08:08 15.53878 78.12802 32562 ft 508 kts
2026-04-21 08:08 15.57375 78.13373 32020 ft 506 kts
2026-04-21 08:08 15.60799 78.13932 31640 ft 501 kts
2026-04-21 08:09 15.64238 78.14494 31412 ft 500 kts
2026-04-21 08:09 15.67689 78.15056 31177 ft 504 kts
2026-04-21 08:09 15.71154 78.15622 30942 ft 502 kts
2026-04-21 08:09 15.74596 78.16185 30714 ft 500 kts
2026-04-21 08:10 15.78032 78.16748 30482 ft 498 kts
2026-04-21 08:10 15.81443 78.17307 30256 ft 495 kts
2026-04-21 08:10 15.84841 78.17863 29866 ft 493 kts
2026-04-21 08:10 15.88223 78.18416 29206 ft 490 kts
2026-04-21 08:11 15.91580 78.18966 28646 ft 485 kts
2026-04-21 08:11 15.94893 78.19508 28087 ft 479 kts
2026-04-21 08:11 15.98164 78.20044 27527 ft 474 kts
2026-04-21 08:11 16.01408 78.20576 26979 ft 468 kts
2026-04-21 08:12 16.04613 78.21101 26431 ft 463 kts
2026-04-21 08:12 16.07778 78.21620 25877 ft 459 kts
2026-04-21 08:12 16.10888 78.22129 25355 ft 454 kts
2026-04-21 08:12 16.14002 78.22640 24803 ft 451 kts
2026-04-21 08:13 16.17084 78.23145 24256 ft 447 kts
2026-04-21 08:13 16.20134 78.23646 23715 ft 444 kts
2026-04-21 08:13 16.23178 78.24146 23121 ft 440 kts
2026-04-21 08:13 16.26193 78.24640 22650 ft 433 kts
2026-04-21 08:14 16.29152 78.25124 22136 ft 427 kts
2026-04-21 08:14 16.32072 78.25605 21626 ft 422 kts
2026-04-21 08:14 16.34891 78.26461 20855 ft 425 kts 21°
2026-04-21 08:14 16.37623 78.27674 19820 ft 429 kts 23°
2026-04-21 08:15 16.40343 78.28938 18884 ft 427 kts 24°
2026-04-21 08:15 16.42992 78.30173 18333 ft 414 kts 24°
2026-04-21 08:15 16.45591 78.31372 17749 ft 401 kts 24°
2026-04-21 08:15 16.48109 78.32526 17082 ft 391 kts 24°
2026-04-21 08:16 16.50612 78.33667 16156 ft 391 kts 24°
2026-04-21 08:16 16.53072 78.34784 15637 ft 379 kts 24°
2026-04-21 08:16 16.55452 78.35864 15370 ft 369 kts 24°
2026-04-21 08:16 16.57820 78.36939 14949 ft 374 kts 24°
2026-04-21 08:17 16.60210 78.38024 14435 ft 372 kts 24°
2026-04-21 08:17 16.62536 78.39081 13850 ft 367 kts 24°
2026-04-21 08:17 16.64902 78.40156 12656 ft 374 kts 24°
2026-04-21 08:17 16.67317 78.41254 11267 ft 383 kts 24°
2026-04-21 08:18 16.69800 78.42382 9890 ft 392 kts 24°
2026-04-21 08:18 16.72299 78.43519 8768 ft 389 kts 24°
2026-04-21 08:18 16.74759 78.44640 7789 ft 383 kts 24°
2026-04-21 08:18 16.77183 78.45745 6834 ft 377 kts 23°
2026-04-21 08:19 16.79574 78.46835 5849 ft 372 kts 23°
2026-04-21 08:19 16.81955 78.47922 5111 ft 372 kts 23°
2026-04-21 08:19 16.84288 78.48985 4871 ft 357 kts 23°
2026-04-21 08:19 16.86472 78.49980 4650 ft 335 kts 23°
2026-04-21 08:20 16.88537 78.50922 4437 ft 314 kts 23°
2026-04-21 08:20 16.90481 78.51815 4270 ft 295 kts 23°
2026-04-21 08:20 16.92294 78.52643 4192 ft 272 kts 23°
2026-04-21 08:20 16.93978 78.53406 4219 ft 259 kts 22°
2026-04-21 08:21 16.95596 78.54142 4203 ft 248 kts 22°
2026-04-21 08:21 16.96956 78.54770 4197 ft 237 kts 22°
2026-04-21 08:21 16.98458 78.55457 4193 ft 237 kts 22°
2026-04-21 08:21 17.00035 78.56174 4363 ft 257 kts 22°
2026-04-21 08:22 17.01744 78.56948 4461 ft 275 kts 22°
2026-04-21 08:22 17.03496 78.57743 4463 ft 273 kts 22°
2026-04-21 08:22 17.05212 78.58528 4387 ft 270 kts 22°
2026-04-21 08:22 17.06905 78.59301 4311 ft 260 kts 23°
2026-04-21 08:23 17.08527 78.60047 4214 ft 249 kts 22°
2026-04-21 08:23 17.10075 78.60756 4117 ft 237 kts 22°
2026-04-21 08:23 17.11557 78.61433 3959 ft 229 kts 22°
2026-04-21 08:23 17.13003 78.62092 3918 ft 229 kts 22°
2026-04-21 08:24 17.14535 78.62580 3910 ft 230 kts
2026-04-21 08:24 17.16066 78.62225 3839 ft 227 kts 332°
2026-04-21 08:24 17.17449 78.61425 3698 ft 227 kts 329°
2026-04-21 08:24 17.18804 78.60594 3581 ft 224 kts 328°
2026-04-21 08:25 17.20159 78.59767 3573 ft 226 kts 329°
2026-04-21 08:25 17.21498 78.58947 3569 ft 221 kts 324°
2026-04-21 08:25 17.22502 78.57822 3526 ft 206 kts 297°
2026-04-21 08:25 17.22966 78.56438 3408 ft 197 kts 279°
2026-04-21 08:26 17.23102 78.55096 3365 ft 174 kts 272°
2026-04-21 08:26 17.23119 78.53888 3268 ft 157 kts 269°
2026-04-21 08:26 17.23108 78.52851 3257 ft 134 kts 268°
2026-04-21 08:26 17.23090 78.51842 3260 ft 142 kts 268°
2026-04-21 08:27 17.23069 78.50804 3109 ft 144 kts 269°
2026-04-21 08:27 17.23046 78.49778 2941 ft 139 kts 268°
2026-04-21 08:27 17.23024 78.48766 2769 ft 140 kts 268°
2026-04-21 08:27 17.23002 78.47740 2593 ft 142 kts 269°
2026-04-21 08:28 17.22977 78.46708 2381 ft 140 kts 268°
2026-04-21 08:28 17.22927 78.45696 2140 ft 137 kts 269°
2026-04-21 08:28 17.22904 78.44721 1988 ft 132 kts 270°
2026-04-21 08:28 17.22894 78.43909 1983 ft 84 kts 269°
2026-04-21 08:29 17.22904 78.43509 1980 ft 34 kts 286°
2026-04-21 08:29 17.23002 78.43297 1980 ft 14 kts 298°
2026-04-21 08:29 17.23018 78.43265 1981 ft 6 kts 298°
2026-04-21 08:29 17.23042 78.43221 1982 ft 8 kts 301°
2026-04-21 08:30 17.23096 78.43166 1981 ft 14 kts 343°
2026-04-21 08:30 17.23211 78.43160 1980 ft 18 kts 358°
2026-04-21 08:30 17.23341 78.43162 1983 ft 15 kts
2026-04-21 08:30 17.23409 78.43163 1983 ft 4 kts 360°
2026-04-21 08:31 17.23416 78.43163 1981 ft 0 kts 360°